FW1310 Weather Reports


time (UTC)temp
C
wind
direction
speed
KPH
gust
KPH
rain 1hr
cm
rain 24hr
cm
rain mn
cm
humidity
%
barometer
mb
20260904144502 26 245 9.7 14.5 0.00 0.03 0.03 90 998.5
20260904144003 26 268 8.0 16.1 0.00 0.03 0.03 91 998.7
20260904143503 26 218 4.8 9.7 0.00 0.03 0.03 92 998.6
20260904143003 26 289 6.4 14.5 0.00 0.03 0.03 93 998.6
20260904142503 26 209 6.4 11.3 0.00 0.03 0.03 93 998.6
20260904142004 26 238 4.8 11.3 0.00 0.03 0.03 93 998.5
20260904141503 26 271 4.8 12.9 0.00 0.03 0.03 94 998.6
20260904141003 25 270 6.4 12.9 0.00 0.03 0.03 94 998.6
20260904140503 25 190 3.2 11.3 0.00 0.03 0.03 95 998.5
20260904135503 25 258 4.8 9.7 0.03 0.03 0.03 95 998.5
20260904135003 25 261 4.8 9.7 0.03 0.03 0.03 95 998.5
20260904134503 25 252 4.8 9.7 0.03 0.03 0.03 95 998.5
20260904134003 25 180 3.2 4.8 0.03 0.03 0.03 95 998.5
20260904133003 25 262 3.2 9.7 0.03 0.03 0.03 95 998.4
20260904132503 25 219 4.8 8.0 0.03 0.03 0.03 95 998.4
20260904132003 25 238 3.2 4.8 0.03 0.03 0.03 95 998.6
20260904131503 25 162 1.6 3.2 0.03 0.03 0.03 95 998.8
20260904131002 25 141 1.6 3.2 0.03 0.03 0.03 94 998.5
20260904130503 25 172 1.6 4.8 0.03 0.03 0.03 94 998.7
20260904130003 25 151 3.2 8.0 0.03 0.03 0.03 94 998.5
20260904125504 25 174 4.8 8.0 0.00 0.00 0.00 93 998.6
20260904124502 25 151 1.6 8.0 0.00 0.00 0.00 92 998.7
20260904123003 26 129 1.6 3.2 0.00 0.00 0.00 92 998.5
20260904122003 26 148 3.2 4.8 0.00 0.00 0.00 92 998.4
20260904121503 26 188 3.2 4.8 0.00 0.00 0.00 91 998.2
20260904121003 26 117 1.6 4.8 0.00 0.00 0.00 91 998.1
20260904120503 26 179 4.8 4.8 0.00 0.00 0.00 91 998.0
20260904120003 26 144 8.0 11.3 0.00 0.00 0.00 91 997.9
20260904115502 25 161 4.8 14.5 0.00 0.00 0.00 92 997.8
20260904115004 25 189 4.8 11.3 0.00 0.00 0.00 92 997.7
20260904114003 25 183 8.0 11.3 0.00 0.00 0.00 92 997.5
20260904113503 25 162 4.8 9.7 0.00 0.00 0.00 92 997.4
20260904113003 25 155 4.8 8.0 0.00 0.00 0.00 92 997.3
20260904112002 25 164 6.4 9.7 0.00 0.00 0.00 92 997.2
20260904111503 25 165 3.2 9.7 0.00 0.00 0.00 91 997.2
20260904111003 25 194 8.0 11.3 0.00 0.00 0.00 91 997.1
20260904110503 25 179 9.7 12.9 0.00 0.00 0.00 91 997.1
20260904110003 25 204 8.0 12.9 0.00 0.00 0.00 91 997.0
20260904105503 25 167 8.0 11.3 0.00 0.00 0.00 91 997.1
20260904105002 25 166 6.4 14.5 0.00 0.00 0.00 91 997.0
20260904104502 25 165 8.0 19.3 0.00 0.00 0.00 91 997.2
20260904104003 25 169 9.7 11.3 0.00 0.00 0.00 91 996.9
20260904103503 26 200 6.4 14.5 0.00 0.00 0.00 91 997.0
20260904103003 26 153 8.0 11.3 0.00 0.00 0.00 91 997.0
20260904102503 26 171 4.8 8.0 0.00 0.00 0.00 90 997.0
20260904102003 26 174 4.8 12.9 0.00 0.00 0.00 90 996.9
20260904101003 26 180 4.8 11.3 0.00 0.00 0.00 90 996.8
20260904100503 26 219 6.4 11.3 0.00 0.00 0.00 89 996.8
20260904100003 26 164 6.4 9.7 0.00 0.00 0.00 89 996.8
20260904095503 26 146 4.8 11.3 0.00 0.00 0.00 89 996.8
20260904095003 26 179 4.8 9.7 0.00 0.00 0.00 89 996.7
20260904094503 26 161 4.8 11.3 0.00 0.00 0.00 89 996.7
20260904094003 26 199 4.8 8.0 0.00 0.00 0.00 89 996.6
20260904093503 26 174 4.8 8.0 0.00 0.00 0.00 89 996.6
20260904093003 26 145 4.8 9.7 0.00 0.00 0.00 88 996.5
20260904092502 26 151 6.4 9.7 0.00 0.00 0.00 88 996.6
20260904092002 26 181 4.8 11.3 0.00 0.00 0.00 88 996.7
20260904091503 26 164 8.0 12.9 0.00 0.00 0.00 88 996.7
20260904091003 26 156 8.0 12.9 0.00 0.00 0.00 88 996.7
20260904090503 26 158 4.8 9.7 0.00 0.00 0.00 88 996.7
20260904090003 26 283 3.2 9.7 0.00 0.00 0.00 88 996.8
20260904085503 26 180 6.4 11.3 0.00 0.00 0.00 87 996.8
20260904085003 26 258 4.8 12.9 0.00 0.00 0.00 87 996.8
20260904084003 26 194 4.8 11.3 0.00 0.00 0.00 87 996.7
20260904083503 26 195 6.4 12.9 0.00 0.00 0.00 87 996.6
20260904082503 26 151 9.7 12.9 0.00 0.00 0.00 88 996.8
20260904082003 26 126 6.4 11.3 0.00 0.00 0.00 88 996.8
20260904081503 26 246 4.8 9.7 0.00 0.00 0.00 88 996.9
20260904081004 26 238 6.4 14.5 0.00 0.00 0.00 88 996.9
20260904080003 26 157 8.0 14.5 0.00 0.00 0.00 88 996.9
20260904075503 26 153 4.8 12.9 0.00 0.00 0.00 88 996.9
20260904075003 26 275 4.8 12.9 0.00 0.00 0.00 88 996.8
20260904074503 26 194 6.4 11.3 0.00 0.00 0.00 88 996.8
20260904074003 26 226 9.7 19.3 0.00 0.00 0.00 88 996.7
20260904073503 26 191 8.0 19.3 0.00 0.00 0.00 88 996.7
20260904073003 26 179 11.3 19.3 0.00 0.00 0.00 88 996.9
20260904072503 26 179 11.3 19.3 0.00 0.00 0.00 87 996.9
20260904072003 26 223 8.0 19.3 0.00 0.00 0.00 87 997.0
20260904071503 26 172 8.0 19.3 0.00 0.00 0.00 87 997.1
20260904071003 26 150 6.4 22.5 0.00 0.00 0.00 87 997.1
20260904070003 26 193 6.4 11.3 0.00 0.00 0.00 86 997.0
20260904065503 26 209 8.0 12.9 0.00 0.00 0.00 86 997.1
20260904065003 26 180 4.8 16.1 0.00 0.00 0.00 86 997.1
20260904063503 26 165 9.7 19.3 0.00 0.00 0.00 85 997.2
20260904063003 26 189 11.3 19.3 0.00 0.00 0.00 85 997.2
20260904062503 26 202 9.7 19.3 0.00 0.00 0.00 85 997.1
20260904062003 26 192 4.8 16.1 0.00 0.00 0.00 85 997.1
20260904060503 26 159 4.8 12.9 0.00 0.00 0.00 85 996.9
20260904060004 26 162 8.0 16.1 0.00 0.00 0.00 85 997.2
20260904055503 26 174 9.7 14.5 0.00 0.00 0.00 85 997.0
20260904055003 26 181 8.0 16.1 0.00 0.00 0.00 85 997.0
20260904054503 26 183 9.7 12.9 0.00 0.00 0.00 85 997.0
20260904053503 26 206 9.7 20.9 0.00 0.00 0.00 85 997.1
20260904053003 26 172 11.3 20.9 0.00 0.00 0.00 85 997.0
20260904052503 26 186 6.4 14.5 0.00 0.00 0.00 85 996.9
20260904051503 26 211 9.7 14.5 0.00 0.00 0.00 85 996.8
20260904051003 26 172 6.4 12.9 0.00 0.00 0.00 85 996.8
20260904050503 26 168 8.0 12.9 0.00 0.00 0.00 85 996.8
20260904050003 26 156 8.0 14.5 0.00 0.00 0.00 84 996.9
20260904045503 26 173 9.7 20.9 0.00 0.00 0.00 84 996.7
20260904045003 26 176 8.0 14.5 0.00 0.00 0.00 84 996.9
20260904044503 26 126 9.7 14.5 0.00 0.00 0.00 84 996.9
20260904044002 26 186 9.7 14.5 0.00 0.00 0.00 84 996.7
20260904043503 26 162 9.7 14.5 0.00 0.00 0.00 83 996.9
20260904043003 26 168 6.4 14.5 0.00 0.00 0.00 83 996.8
20260904042503 26 157 9.7 20.9 0.00 0.00 0.00 83 996.8
20260904042003 26 191 8.0 20.9 0.00 0.00 0.00 83 996.8
20260904041503 26 156 6.4 9.7 0.00 0.00 0.00 83 996.7
20260904041003 26 177 3.2 19.3 0.00 0.00 0.00 83 996.7
20260904040503 26 180 6.4 12.9 0.00 0.00 0.00 82 996.7
20260904035503 26 196 8.0 16.1 0.00 0.00 0.00 82 996.9
20260904035003 26 220 11.3 14.5 0.00 0.00 0.00 82 996.6
20260904034503 26 201 8.0 16.1 0.00 0.00 0.00 81 996.7
20260904034003 26 144 6.4 19.3 0.00 0.00 0.00 81 996.8
20260904033503 27 151 8.0 20.9 0.00 0.00 0.00 81 996.8
20260904033003 27 146 11.3 20.9 0.00 0.00 0.00 80 996.8
20260904032503 27 202 8.0 19.3 0.00 0.00 0.00 80 996.8
20260904032003 27 200 8.0 19.3 0.00 0.00 0.00 80 996.5
20260904031503 27 169 9.7 19.3 0.00 0.00 0.00 79 996.6
20260904031003 27 173 9.7 20.9 0.00 0.00 0.00 79 996.6
20260904030003 27 130 6.4 19.3 0.00 0.00 0.00 77 996.5
20260904025503 27 201 11.3 24.1 0.00 0.00 0.00 77 996.5
20260904025003 27 185 8.0 12.9 0.00 0.00 0.00 76 996.6
20260904024503 27 158 4.8 11.3 0.00 0.00 0.00 76 996.3
20260904024003 27 128 6.4 11.3 0.00 0.00 0.00 76 996.4
20260904023503 27 193 4.8 11.3 0.00 0.00 0.00 75 996.3
20260904023003 27 175 4.8 9.7 0.00 0.00 0.00 75 996.2
20260904022503 27 139 4.8 12.9 0.00 0.00 0.00 75 996.2
20260904022003 27 150 4.8 12.9 0.00 0.00 0.00 75 996.1
20260904021503 27 141 8.0 12.9 0.00 0.00 0.00 74 996.1
20260904021003 27 52 4.8 9.7 0.00 0.00 0.00 74 996.2
20260904020004 28 16 4.8 19.3 0.00 0.00 0.00 74 996.0
20260904015503 28 202 8.0 14.5 0.00 0.00 0.00 73 995.9
20260904015004 28 179 6.4 12.9 0.00 0.00 0.00 73 995.7
20260904014504 28 175 6.4 14.5 0.00 0.00 0.00 73 995.7
20260904013004 28 182 3.2 11.3 0.00 0.00 0.00 72 995.7
20260904011503 28 86 4.8 8.0 0.00 0.00 0.00 72 995.6
20260904011003 28 107 4.8 8.0 0.00 0.00 0.00 72 995.6
20260904010503 28 143 4.8 12.9 0.00 0.00 0.00 71 995.5
20260904010004 29 142 3.2 11.3 0.00 0.00 0.00 71 995.3
20260904005504 29 173 6.4 11.3 0.00 0.00 0.00 71 995.4
20260904004503 29 146 4.8 12.9 0.00 0.00 0.00 70 995.3
20260904004004 30 182 4.8 12.9 0.00 0.00 0.00 69 995.4
20260904003503 30 152 4.8 12.9 0.00 0.00 0.00 69 995.2
20260904003003 30 152 9.7 16.1 0.00 0.00 0.00 68 995.2
20260904002503 30 153 4.8 14.5 0.00 0.00 0.00 68 995.1
20260904002003 30 198 8.0 14.5 0.00 0.00 0.00 68 995.2
20260904001504 30 171 6.4 14.5 0.00 0.00 0.00 67 995.3
20260904001003 30 235 8.0 25.7 0.00 0.00 0.00 67 995.4
20260904000003 30 184 4.8 11.3 0.00 0.00 0.00 68 995.2
20260903235503 30 178 8.0 14.5 0.00 0.00 0.00 68 995.2
20260903235003 31 126 9.7 19.3 0.00 0.00 0.00 68 995.1
20260903234003 31 170 8.0 14.5 0.00 0.00 0.00 66 995.1
20260903233503 31 185 9.7 27.4 0.00 0.00 0.00 66 994.9
20260903233004 32 116 8.0 14.5 0.00 0.00 0.00 65 995.1
20260903232503 32 209 8.0 20.9 0.00 0.00 0.00 65 994.8
20260903232004 32 71 8.0 14.5 0.00 0.00 0.00 65 994.9
20260903231503 32 176 8.0 22.5 0.00 0.00 0.00 66 994.6
20260903231003 33 189 8.0 14.5 0.00 0.00 0.00 64 994.6
20260903230503 33 156 12.9 19.3 0.00 0.00 0.00 63 994.8
20260903230004 33 32 9.7 19.3 0.00 0.00 0.00 62 994.5
20260903225003 33 162 9.7 16.1 0.00 0.00 0.00 62 994.6
20260903224503 33 201 9.7 22.5 0.00 0.00 0.00 61 994.5
20260903223503 33 73 9.7 14.5 0.00 0.00 0.00 60 994.5
20260903223004 34 68 8.0 14.5 0.00 0.00 0.00 60 994.6
20260903222503 34 200 6.4 14.5 0.00 0.00 0.00 58 994.6
20260903222003 35 223 6.4 16.1 0.00 0.00 0.00 55 994.5
20260903221504 35 134 9.7 16.1 0.00 0.00 0.00 55 994.4
20260903221004 35 185 8.0 20.9 0.00 0.00 0.00 55 994.2
20260903220505 35 150 4.8 11.3 0.00 0.00 0.00 55 994.4
20260903220003 34 125 9.7 16.1 0.00 0.00 0.00 56 994.4
20260903215503 34 156 9.7 20.9 0.00 0.00 0.00 56 994.3
20260903215003 35 259 9.7 16.1 0.00 0.00 0.00 54 994.4
20260903214503 35 153 4.8 16.1 0.00 0.00 0.00 54 994.3
20260903214003 36 118 6.4 16.1 0.00 0.00 0.00 53 994.4
20260903213504 36 170 8.0 12.9 0.00 0.00 0.00 52 994.5
20260903213003 35 148 4.8 8.0 0.00 0.00 0.00 53 994.4
20260903212503 35 96 6.4 19.3 0.00 0.00 0.00 54 994.6
20260903212003 35 190 6.4 12.9 0.00 0.00 0.00 54 994.7
20260903211503 36 237 3.2 14.5 0.00 0.00 0.00 53 994.7
20260903211004 35 208 4.8 12.9 0.00 0.00 0.00 54 994.7
20260903210503 35 156 6.4 14.5 0.00 0.00 0.00 53 994.8
20260903210003 36 159 6.4 12.9 0.00 0.00 0.00 53 994.8
20260903205504 36 89 3.2 9.7 0.00 0.00 0.00 52 994.6
20260903204503 36 121 6.4 14.5 0.00 0.00 0.00 51 995.0
20260903204004 36 202 4.8 14.5 0.00 0.00 0.00 50 995.0
20260903203503 36 79 3.2 12.9 0.00 0.00 0.00 50 995.1
20260903202503 36 139 3.2 9.7 0.00 0.00 0.00 49 995.4
20260903202003 36 142 4.8 11.3 0.00 0.00 0.00 50 995.4
20260903201504 36 164 3.2 12.9 0.00 0.00 0.00 51 995.5
20260903201004 36 110 4.8 8.0 0.00 0.00 0.00 51 995.5
20260903200503 36 119 3.2 12.9 0.00 0.00 0.00 50 995.5
20260903200003 36 185 4.8 12.9 0.00 0.00 0.00 51 995.7
20260903195504 36 189 4.8 11.3 0.00 0.00 0.00 52 995.5
20260903195003 36 174 4.8 11.3 0.00 0.00 0.00 51 995.6
20260903194503 36 160 6.4 11.3 0.00 0.00 0.00 51 995.6
20260903194004 36 47 3.2 9.7 0.00 0.00 0.00 51 995.8
20260903193503 36 139 4.8 11.3 0.00 0.00 0.00 51 995.8
20260903193003 35 158 3.2 9.7 0.00 0.00 0.00 51 996.0
20260903192503 35 142 3.2 12.9 0.00 0.00 0.00 52 996.1
20260903191503 36 179 8.0 12.9 0.00 0.00 0.00 53 996.2
20260903191003 35 155 3.2 9.7 0.00 0.00 0.00 53 996.3
20260903190504 35 86 3.2 12.9 0.00 0.00 0.00 53 996.5
20260903185003 35 145 3.2 11.3 0.00 0.00 0.00 55 996.5
20260903184503 35 177 4.8 9.7 0.00 0.00 0.00 55 996.6
20260903184004 35 150 3.2 11.3 0.00 0.00 0.00 54 996.8
20260903183503 35 166 1.6 12.9 0.00 0.00 0.00 55 996.7
20260903182503 33 188 4.8 8.0 0.00 0.00 0.00 56 996.9
20260903182004 33 95 3.2 8.0 0.00 0.00 0.00 57 997.1
20260903181504 33 124 3.2 9.7 0.00 0.00 0.00 57 997.0
20260903181003 33 125 4.8 9.7 0.00 0.00 0.00 57 997.0
20260903180503 33 163 4.8 11.3 0.00 0.00 0.00 58 997.2
20260903180003 33 152 4.8 12.9 0.00 0.00 0.00 57 997.2
20260903175505 33 123 3.2 9.7 0.00 0.00 0.00 55 997.3
20260903174503 33 177 3.2 9.7 0.00 0.00 0.00 56 997.4
20260903174003 33 167 3.2 9.7 0.00 0.00 0.00 55 997.5
20260903173503 33 149 4.8 9.7 0.00 0.00 0.00 55 997.4
20260903173003 33 164 1.6 9.7 0.00 0.00 0.00 55 997.5
20260903172503 32 207 4.8 11.3 0.00 0.00 0.00 57 997.8
20260903172004 33 160 4.8 12.9 0.00 0.00 0.00 57 997.7
20260903171503 33 183 6.4 12.9 0.00 0.00 0.00 57 997.8
20260903171003 32 228 4.8 9.7 0.00 0.00 0.00 58 997.8
20260903170503 32 184 6.4 9.7 0.00 0.00 0.00 60 997.6
20260903170004 32 195 4.8 11.3 0.00 0.00 0.00 60 997.5
20260903165503 32 139 4.8 9.7 0.00 0.00 0.00 60 997.4
20260903165003 32 205 4.8 12.9 0.00 0.00 0.00 62 997.4
20260903164503 32 235 8.0 16.1 0.00 0.00 0.00 62 997.6
20260903164004 31 230 6.4 14.5 0.00 0.00 0.00 63 997.6
20260903163504 31 223 6.4 12.9 0.00 0.00 0.00 63 997.6
20260903163003 31 276 4.8 11.3 0.00 0.00 0.00 64 997.7
20260903162503 31 173 3.2 14.5 0.00 0.00 0.00 66 997.7
20260903162004 31 156 6.4 11.3 0.00 0.00 0.00 66 997.6
20260903161503 30 250 3.2 12.9 0.00 0.00 0.00 69 997.7
20260903161003 30 203 6.4 11.3 0.00 0.00 0.00 69 997.6
20260903160503 30 205 3.2 12.9 0.00 0.00 0.00 70 997.7
20260903160003 30 265 6.4 14.5 0.00 0.00 0.00 71 997.5
20260903155503 30 245 6.4 9.7 0.00 0.00 0.00 72 997.6
20260903155004 30 162 8.0 11.3 0.00 0.00 0.00 72 997.4
20260903154504 29 244 8.0 12.9 0.00 0.00 0.00 73 997.6
20260903154004 29 247 8.0 14.5 0.00 0.00 0.00 73 997.7
20260903153504 29 230 4.8 12.9 0.00 0.00 0.00 73 997.5
20260903153004 29 187 4.8 11.3 0.00 0.00 0.00 74 997.5
20260903152504 29 177 8.0 14.5 0.00 0.00 0.00 75 997.4
20260903152004 29 288 8.0 14.5 0.00 0.00 0.00 75 997.4
20260903151504 29 268 8.0 9.7 0.00 0.00 0.00 75 997.5
20260903151003 28 269 9.7 19.3 0.00 0.00 0.00 77 997.7
20260903150503 28 254 8.0 14.5 0.00 0.00 0.00 77 997.5
20260903145503 28 190 6.4 12.9 0.00 0.00 0.00 78 997.5
20260903145003 28 259 8.0 14.5 0.00 0.00 0.00 78 997.5